EW4171 Weather Reports


time (UTC)temp
F
wind
direction
speed
knots
gust
knots
rain 1hr
in
rain 24hr
in
rain mn
in
humidity
%
barometer
mb
20260505124612 32 57 0.0 0.9 0.00 0.00 0.00 66 1003.1
20260505123059 33 123 0.0 1.7 0.00 0.00 0.00 62 1002.8
20260505121552 35 101 0.0 0.9 0.00 0.00 0.00 59 1002.8
20260505120100 36 339 0.0 0.9 0.00 0.00 0.00 56 1002.8
20260505114543 39 54 0.0 5.2 0.00 0.00 0.00 51 1002.8
20260505113056 39 136 0.9 5.2 0.00 0.00 0.00 51 1002.8
20260505111539 40 212 0.0 3.5 0.00 0.00 0.00 49 1002.9
20260505101530 40 227 0.9 5.2 0.00 0.01 0.00 47 1002.1
20260505100027 41 301 0.0 3.5 0.00 0.01 0.00 45 1002.5
20260505094524 41 214 0.0 4.3 0.00 0.01 0.00 45 1002.6
20260505093020 42 267 0.0 3.5 0.00 0.01 0.00 44 1003.0
20260505091518 42 250 0.0 8.7 0.00 0.01 0.00 44 1003.2
20260505090014 43 230 1.7 9.6 0.00 0.02 0.00 42 1003.1
20260505084532 44 214 4.3 10.4 0.00 0.02 0.00 41 1003.3
20260505083009 45 220 2.6 8.7 0.00 0.02 0.00 41 1003.4
20260505081515 45 225 3.5 10.4 0.00 0.02 0.00 40 1003.5
20260505080004 45 203 4.3 10.4 0.00 0.02 0.00 39 1003.3
20260505074506 46 168 5.2 11.3 0.00 0.02 0.00 41 1003.3
20260505073108 46 233 3.5 14.8 0.00 0.02 0.00 42 1003.3
20260505071559 46 210 1.7 10.4 0.00 0.02 0.00 42 1003.4
20260505070054 46 253 0.9 4.3 0.00 0.02 0.00 42 1003.8
20260505064559 46 233 0.0 5.2 0.00 0.02 0.00 40 1003.8
20260505063054 46 230 1.7 7.8 0.00 0.02 0.00 39 1003.8
20260505061551 46 202 4.3 9.6 0.00 0.02 0.00 37 1004.0
20260505060042 46 221 0.9 5.2 0.00 0.02 0.02 37 1004.1
20260505054545 45 224 0.0 2.6 0.00 0.02 0.02 39 1004.3
20260505053106 47 217 0.0 7.8 0.00 0.02 0.02 37 1004.2
20260505051541 47 207 0.9 10.4 0.00 0.02 0.02 36 1004.2
20260505041543 48 164 3.5 7.0 0.00 0.02 0.02 33 1004.4
20260505040040 48 239 0.0 2.6 0.00 0.02 0.02 32 1004.5
20260505034540 48 217 0.9 8.7 0.00 0.02 0.02 31 1004.5
20260505033045 48 173 0.0 2.6 0.00 0.02 0.02 32 1004.4
20260505031540 48 17 1.7 6.1 0.00 0.02 0.02 33 1004.1
20260505030036 49 20 1.7 7.8 0.00 0.02 0.02 30 1004.0
20260505024535 49 213 0.9 7.8 0.00 0.02 0.02 30 1003.9
20260505023035 50 135 0.9 7.8 0.00 0.02 0.02 29 1003.9
20260505021534 50 99 2.6 11.3 0.00 0.02 0.02 28 1004.3
20260505020033 50 58 5.2 13.9 0.00 0.02 0.02 28 1004.3
20260505014533 50 29 0.0 5.2 0.00 0.02 0.02 27 1004.1
20260505013032 50 141 0.0 4.3 0.00 0.02 0.02 28 1003.7
20260505011553 51 195 3.5 8.7 0.00 0.02 0.02 27 1003.6
20260505010031 51 218 4.3 13.0 0.00 0.02 0.02 26 1003.7
20260505004530 52 226 5.2 14.8 0.00 0.02 0.02 25 1003.6
20260505003030 52 211 4.3 14.8 0.00 0.02 0.02 25 1003.8
20260505001528 53 164 4.3 12.2 0.00 0.02 0.02 26 1003.9
20260505000036 53 155 7.0 13.9 0.00 0.02 0.02 25 1003.6
20260504234528 54 238 7.0 22.6 0.00 0.02 0.02 24 1003.8
20260504233020 55 164 6.1 15.6 0.00 0.02 0.02 25 1003.6
20260504231515 56 202 1.7 12.2 0.00 0.02 0.02 26 1003.4
20260504230013 56 181 4.3 13.0 0.00 0.02 0.02 24 1003.6
20260504224512 56 214 3.5 10.4 0.00 0.02 0.02 26 1003.0
20260504223006 56 154 6.1 13.9 0.00 0.02 0.02 24 1003.5
20260504221504 56 222 4.3 14.8 0.00 0.02 0.02 26 1003.5
20260504214606 55 169 5.2 14.8 0.00 0.02 0.02 29 1004.1
20260504213053 55 214 6.1 19.1 0.00 0.02 0.02 29 1004.2
20260504211549 54 168 8.7 19.1 0.00 0.02 0.02 31 1004.1
20260504210045 55 207 6.1 17.4 0.00 0.02 0.02 31 1004.3
20260504204540 54 217 8.7 20.9 0.00 0.02 0.02 34 1004.5
20260504203037 54 197 4.3 20.0 0.00 0.02 0.02 36 1004.9
20260504201532 53 217 7.8 13.9 0.00 0.02 0.02 37 1005.1
20260504200029 53 209 7.8 15.6 0.00 0.02 0.02 38 1005.3
20260504194531 54 217 5.2 13.0 0.00 0.02 0.02 40 1005.0
20260504193024 54 194 5.2 14.8 0.00 0.02 0.02 41 1005.5
20260504191521 55 176 1.7 7.8 0.00 0.02 0.02 40 1005.1
20260504190024 54 254 0.9 14.8 0.00 0.02 0.02 37 1005.4
20260504184523 53 51 1.7 17.4 0.00 0.02 0.02 39 1005.2
20260504183017 54 45 6.1 20.9 0.00 0.02 0.02 39 1006.0
20260504181514 53 11 0.9 15.6 0.00 0.02 0.02 39 1005.9
20260504180014 53 286 6.1 14.8 0.00 0.02 0.02 40 1005.8
20260504174512 53 37 5.2 13.0 0.00 0.02 0.02 43 1006.5
20260504173009 53 150 7.0 16.5 0.00 0.02 0.02 42 1006.1
20260504171506 52 217 0.0 14.8 0.00 0.02 0.02 47 1006.3